This demonstration page uses our WeatherBlox Daily Observations layout. Learn more.

Left ArrowRight Arrow

Hourly Observations for May 19, 2020

Temp ( °F °C ) Dew Point ( °F °C ) Humidity (%) Winds ( mph kmh ) Pressure ( in mb ) Visibility ( mi km ) Precip ( " mm )
12:53 am 00:53 Clear 50 10 48 8.9 93 93 Calm 29.96 1015 10 16 0.00 0.00
1:53 am 01:53 Clear 50 10 47 8.3 89 89 NW 5 7 29.95 1014 10 16 0.00 0.00
2:53 am 02:53 Clear 49 9.4 46 7.8 90 90 NNW 5 7 29.95 1014 10 16 0.00 0.00
3:53 am 03:53 Clear 47 8.3 45 7.2 93 93 Calm 29.96 1015 10 16 0.00 0.00
4:53 am 04:53 Clear 46 7.8 43 6.1 89 89 N 5 7 29.96 1015 10 16 0.00 0.00
5:53 am 05:53 Sunny 46 7.8 44 6.7 93 93 NNE 5 7 29.97 1015 10 16 0.00 0.00
6:53 am 06:53 Sunny 49 9.4 46 7.8 90 90 Calm 30.00 1016 10 16 0.00 0.00
7:53 am 07:53 Sunny 54 12.2 48 8.9 80 80 VRB 3 6 29.99 1016 10 16 0.00 0.00
8:53 am 08:53 Sunny 58 14.4 46 7.8 65 65 VRB 3 6 29.99 1016 10 16 0.00 0.00
9:53 am 09:53 Sunny 62 16.7 46 7.8 56 56 VRB 3 6 29.97 1015 10 16 0.00 0.00
10:53 am 10:53 Sunny 64 17.8 46 7.8 52 52 W 6 9 29.96 1015 10 16 0.00 0.00
11:53 am 11:53 Sunny 65 18.3 45 7.2 49 49 W 6 9 29.95 1014 10 16 0.00 0.00
12:53 pm 12:53 Sunny 68 20 45 7.2 44 44 Calm 29.95 1014 10 16 0.00 0.00
1:53 pm 13:53 Sunny 70 21.1 44 6.7 39 39 VRB 5 7 29.93 1014 10 16 0.00 0.00
2:53 pm 14:53 Sunny 72 22.2 42 5.6 34 34 VRB 5 7 29.93 1013 10 16 0.00 0.00
3:53 pm 15:53 Sunny 72 22.2 43 6.1 35 35 VRB 5 7 29.91 1013 10 16 0.00 0.00
4:53 pm 16:53 Sunny 73 22.8 43 6.1 34 34 S 5 7 29.90 1013 10 16 0.00 0.00
5:53 pm 17:53 Cloudy with Light Rain 68 20 47 8.3 47 47 NNE 5 7 29.91 1013 10 16 0.00 0.00
6:53 pm 18:53 Mostly Cloudy 69 20.6 46 7.8 44 44 SSE 8 13 29.91 1013 10 16 0.00 0.00
7:49 pm 19:49 Mostly Cloudy with Light Rain 64 18 46 8 52 52 WSW 10 17 29.90 1013 10 16 0.00 0.00
7:53 pm 19:53 Mostly Cloudy 64 17.8 47 8.3 54 54 SSW 5 7 29.91 1013 10 16 0.00 0.00
8:53 pm 20:53 Cloudy with Light Rain 64 17.8 48 8.9 56 56 W 9 15 29.93 1014 10 16 0.00 0.00
9:39 pm 21:39 Mostly Clear with Nearby Thunderstorms 61 16.1 49 9.4 65 65 WNW 5 7 29.98 1015 10 16 0.00 0.00
9:53 pm 21:53 Mostly Clear 62 16.7 47 8.3 58 58 WNW 3 6 29.97 1015 10 16 0.00 0.00
10:53 pm 22:53 Clear 58 14.4 50 10 75 75 Calm 29.97 1015 10 16 0.00 0.00
11:53 pm 23:53 Clear 56 13.3 49 9.4 77 77 Calm 29.99 1016 10 16 0.00 0.00

Powered by AerisWeather